VCP62E KMCO-ENGM

Flight info

Callsign VCP62E
Flight time N/A
Altitude 37000
Route JEEMY4 PAINN SHRKS KJ06S TEEEM Q99 RAANE FEDOX SANNY MAULS PLDGE LOYDD OGESY Q227 STUBN TYROD SYR Q844 VIBRU REEDO IKLAX KEMVI Q852 DICEN ANCER N817A IRLOK 5550N 5640N 5630N 5620N PIKIL SOVED MIMKU ROBBO ALOTI UBEDA PIPEX M609 RIPAM
Aircraft A359/H-SDE2E3GHIJ3J4J5LM1ORWXY/LB1D1

Departure

Time 2026-04-25 11:43
Airport Orlando International Airport (KMCO)

Arrival

Time N/A
Airport Oslo-Gardermoen International Airport (ENGM)
Time Latitude Longitude Altitude Speed Heading
2026-04-25 08:43 28.42904 -81.31548 105 ft 0 kts 193°
2026-04-25 11:13 28.42909 -81.31547 108 ft 4 kts 193°
2026-04-25 11:13 28.42935 -81.31539 108 ft 4 kts 202°
2026-04-25 11:13 28.42954 -81.31525 108 ft 4 kts 258°
2026-04-25 11:14 28.42955 -81.31514 108 ft 1 kts 271°
2026-04-25 11:14 28.42955 -81.31513 108 ft 0 kts 271°
2026-04-25 11:17 28.42955 -81.31519 108 ft 2 kts 271°
2026-04-25 11:18 28.42954 -81.31559 108 ft 7 kts 265°
2026-04-25 11:18 28.42946 -81.31620 106 ft 9 kts 260°
2026-04-25 11:18 28.42940 -81.31695 108 ft 10 kts 276°
2026-04-25 11:18 28.42964 -81.31769 107 ft 10 kts 297°
2026-04-25 11:19 28.42988 -81.31815 109 ft 0 kts 303°
2026-04-25 11:21 28.42989 -81.31817 107 ft 0 kts 303°
2026-04-25 11:21 28.42970 -81.31784 109 ft 0 kts 303°
2026-04-25 11:23 28.42980 -81.31802 109 ft 7 kts 303°
2026-04-25 11:23 28.43023 -81.31838 106 ft 8 kts 344°
2026-04-25 11:23 28.43079 -81.31838 109 ft 9 kts 359°
2026-04-25 11:24 28.43152 -81.31839 109 ft 11 kts
2026-04-25 11:24 28.43239 -81.31841 105 ft 14 kts 359°
2026-04-25 11:24 28.43342 -81.31842 104 ft 15 kts 359°
2026-04-25 11:24 28.43449 -81.31843 109 ft 15 kts 360°
2026-04-25 11:25 28.43555 -81.31843 107 ft 15 kts
2026-04-25 11:25 28.43662 -81.31846 109 ft 16 kts 358°
2026-04-25 11:25 28.43775 -81.31847 111 ft 17 kts
2026-04-25 11:25 28.43889 -81.31847 111 ft 16 kts 357°
2026-04-25 11:26 28.43996 -81.31876 113 ft 16 kts 343°
2026-04-25 11:26 28.44109 -81.31899 111 ft 18 kts 357°
2026-04-25 11:26 28.44241 -81.31901 110 ft 20 kts
2026-04-25 11:26 28.44381 -81.31902 109 ft 20 kts 359°
2026-04-25 11:27 28.44528 -81.31904 108 ft 22 kts 360°
2026-04-25 11:27 28.44645 -81.31905 104 ft 11 kts 359°
2026-04-25 11:27 28.44701 -81.31905 106 ft 7 kts 360°
2026-04-25 11:27 28.44719 -81.31905 108 ft 2 kts 359°
2026-04-25 11:28 28.44734 -81.31905 108 ft 0 kts 359°
2026-04-25 11:38 28.44737 -81.31906 108 ft 3 kts 359°
2026-04-25 11:38 28.44790 -81.31910 109 ft 9 kts 345°
2026-04-25 11:38 28.44812 -81.31927 109 ft 0 kts 315°
2026-04-25 11:39 28.44824 -81.31969 106 ft 13 kts 278°
2026-04-25 11:39 28.44825 -81.32083 104 ft 15 kts 266°
2026-04-25 11:39 28.44823 -81.32119 105 ft 0 kts 269°
2026-04-25 11:41 28.44823 -81.32126 105 ft 6 kts 269°
2026-04-25 11:41 28.44805 -81.32214 105 ft 9 kts 223°
2026-04-25 11:41 28.44753 -81.32230 108 ft 8 kts 185°
2026-04-25 11:42 28.44729 -81.32230 109 ft 0 kts 178°
2026-04-25 11:42 28.44634 -81.32227 107 ft 42 kts 179°
2026-04-25 11:43 28.44121 -81.32223 112 ft 103 kts 179°
2026-04-25 11:43 28.43222 -81.32213 106 ft 155 kts 179°
2026-04-25 11:43 28.42103 -81.32211 672 ft 150 kts 180°
2026-04-25 11:43 28.41025 -81.32223 1176 ft 160 kts 180°
2026-04-25 11:44 28.39837 -81.32383 1445 ft 186 kts 193°
2026-04-25 11:44 28.38532 -81.32931 1647 ft 213 kts 205°
2026-04-25 11:44 28.37128 -81.33724 1905 ft 237 kts 207°
2026-04-25 11:44 28.35647 -81.34629 2402 ft 249 kts 212°
2026-04-25 11:45 28.34354 -81.35956 3104 ft 253 kts 227°
2026-04-25 11:45 28.33213 -81.37502 3790 ft 258 kts 231°
2026-04-25 11:45 28.32421 -81.39351 4354 ft 265 kts 256°
2026-04-25 11:45 28.32112 -81.41431 5033 ft 269 kts 263°
2026-04-25 11:46 28.31892 -81.43549 5711 ft 272 kts 263°
2026-04-25 11:46 28.31680 -81.45694 6393 ft 275 kts 265°
2026-04-25 11:46 28.31879 -81.47840 6852 ft 276 kts 289°
2026-04-25 11:46 28.32869 -81.49689 6989 ft 276 kts 314°
2026-04-25 11:47 28.34318 -81.51121 7002 ft 276 kts 322°
2026-04-25 11:47 28.35874 -81.52417 6992 ft 278 kts 329°
2026-04-25 11:47 28.37680 -81.53168 7074 ft 278 kts 349°
2026-04-25 11:47 28.39602 -81.53500 7490 ft 281 kts 353°
2026-04-25 11:48 28.41547 -81.53770 8254 ft 282 kts 353°
2026-04-25 11:48 28.43504 -81.54038 9039 ft 284 kts 353°
2026-04-25 11:48 28.45473 -81.54308 9771 ft 286 kts 353°
2026-04-25 11:48 28.47442 -81.54536 10377 ft 294 kts 357°
2026-04-25 11:49 28.49570 -81.54332 10656 ft 313 kts
2026-04-25 11:49 28.51739 -81.53804 10924 ft 332 kts 12°
2026-04-25 11:49 28.54043 -81.53167 11188 ft 349 kts 12°
2026-04-25 11:49 28.56452 -81.52482 11458 ft 365 kts 12°
2026-04-25 11:50 28.58955 -81.51766 11867 ft 375 kts 12°
2026-04-25 11:50 28.61507 -81.51032 12426 ft 380 kts 12°
2026-04-25 11:50 28.64084 -81.50290 13019 ft 383 kts 12°
2026-04-25 11:50 28.66679 -81.49544 13622 ft 386 kts 12°
2026-04-25 11:51 28.69288 -81.48793 14197 ft 388 kts 12°
2026-04-25 11:51 28.71911 -81.48038 14756 ft 391 kts 12°
2026-04-25 11:51 28.74565 -81.47272 15329 ft 393 kts 11°
2026-04-25 11:51 28.77231 -81.46503 15877 ft 396 kts 11°
2026-04-25 11:52 28.79909 -81.45732 16438 ft 399 kts 11°
2026-04-25 11:52 28.82607 -81.44954 16998 ft 401 kts 11°
2026-04-25 11:52 28.85325 -81.44168 17530 ft 404 kts 11°
2026-04-25 11:52 28.88063 -81.43376 18066 ft 407 kts 11°
2026-04-25 11:53 28.90819 -81.42579 18601 ft 410 kts 11°
2026-04-25 11:53 28.93592 -81.41800 19079 ft 413 kts
2026-04-25 11:53 28.96450 -81.41477 19545 ft 412 kts 356°
2026-04-25 11:53 28.99305 -81.41697 20039 ft 413 kts 352°
2026-04-25 11:54 29.02180 -81.42022 20515 ft 416 kts 352°
2026-04-25 11:54 29.05079 -81.42357 20975 ft 420 kts 352°
2026-04-25 11:54 29.10937 -81.43019 21846 ft 427 kts 352°
2026-04-25 11:55 29.13872 -81.43308 22309 ft 430 kts 353°
2026-04-25 11:55 29.16868 -81.43587 22772 ft 433 kts 353°
2026-04-25 11:55 29.19884 -81.43867 23194 ft 437 kts 353°
2026-04-25 11:55 29.22917 -81.44151 23644 ft 440 kts 353°
2026-04-25 11:56 29.25985 -81.44440 24087 ft 443 kts 353°
2026-04-25 11:56 29.29062 -81.44732 24514 ft 446 kts 353°
2026-04-25 11:56 29.32166 -81.45026 24958 ft 448 kts 353°
2026-04-25 11:56 29.35284 -81.45323 25385 ft 451 kts 353°
2026-04-25 11:57 29.38421 -81.45622 25835 ft 454 kts 353°
2026-04-25 11:57 29.41577 -81.45922 26253 ft 456 kts 353°
2026-04-25 11:57 29.44754 -81.46225 26673 ft 459 kts 353°
2026-04-25 11:57 29.47943 -81.46529 27088 ft 461 kts 353°
2026-04-25 11:58 29.51152 -81.46837 27491 ft 464 kts 353°
2026-04-25 11:58 29.54376 -81.47145 27901 ft 466 kts 353°
2026-04-25 11:58 29.57570 -81.47451 28277 ft 468 kts 353°
2026-04-25 11:58 29.60828 -81.47761 28658 ft 470 kts 354°
2026-04-25 11:59 29.64096 -81.48054 29006 ft 472 kts 354°
2026-04-25 11:59 29.67378 -81.48346 29347 ft 475 kts 354°
2026-04-25 11:59 29.70681 -81.48643 29662 ft 477 kts 354°
2026-04-25 12:00 29.77325 -81.49243 30285 ft 481 kts 354°
2026-04-25 12:00 29.80668 -81.49547 30586 ft 482 kts 354°
2026-04-25 12:00 29.87373 -81.50199 31260 ft 483 kts 351°
2026-04-25 12:01 29.90655 -81.50932 31649 ft 480 kts 344°
2026-04-25 12:01 29.93864 -81.51955 32119 ft 477 kts 342°
2026-04-25 12:01 29.97038 -81.53061 32500 ft 476 kts 342°
2026-04-25 12:01 30.00192 -81.54204 32831 ft 475 kts 341°
2026-04-25 12:02 30.06476 -81.56508 33539 ft 473 kts 342°
2026-04-25 12:02 30.09612 -81.57648 33852 ft 472 kts 342°
2026-04-25 12:02 30.12738 -81.58777 34145 ft 471 kts 342°
2026-04-25 12:03 30.15864 -81.59902 34438 ft 470 kts 342°
2026-04-25 12:03 30.18989 -81.61024 34712 ft 470 kts 342°
2026-04-25 12:03 30.22118 -81.62146 34972 ft 470 kts 342°
2026-04-25 12:03 30.25234 -81.63264 35221 ft 469 kts 342°
2026-04-25 12:04 30.28354 -81.64385 35468 ft 469 kts 342°
2026-04-25 12:04 30.31467 -81.65504 35706 ft 468 kts 342°
2026-04-25 12:04 30.34584 -81.66626 35928 ft 468 kts 342°
2026-04-25 12:04 30.37694 -81.67746 36124 ft 468 kts 342°
2026-04-25 12:05 30.40761 -81.68850 36338 ft 468 kts 342°
2026-04-25 12:05 30.43877 -81.69974 36507 ft 468 kts 342°
2026-04-25 12:05 30.46987 -81.71097 36697 ft 468 kts 342°
2026-04-25 12:05 30.50090 -81.72217 36899 ft 467 kts 342°
2026-04-25 12:06 30.56261 -81.74447 36955 ft 462 kts 342°
2026-04-25 12:06 30.62345 -81.76853 36963 ft 462 kts 335°
2026-04-25 12:07 30.68095 -81.80176 36962 ft 462 kts 332°
2026-04-25 12:07 30.73767 -81.83672 36962 ft 461 kts 331°
2026-04-25 12:08 30.79424 -81.87201 36962 ft 461 kts 331°
2026-04-25 12:08 30.85088 -81.90724 36957 ft 461 kts 332°
2026-04-25 12:09 30.90748 -81.94240 36962 ft 461 kts 332°
2026-04-25 12:09 30.96464 -81.97614 36963 ft 461 kts 338°
2026-04-25 12:10 31.02655 -81.99444 36962 ft 462 kts 353°
2026-04-25 12:10 31.09052 -81.99411 36962 ft 463 kts
2026-04-25 12:11 31.15493 -81.98930 36963 ft 464 kts
2026-04-25 12:11 31.21924 -81.98396 36962 ft 463 kts
2026-04-25 12:12 31.27271 -81.97975 36971 ft 463 kts
2026-04-25 12:12 31.34781 -81.97407 36971 ft 461 kts
2026-04-25 12:13 31.41173 -81.96931 36971 ft 459 kts
2026-04-25 12:13 31.47516 -81.96459 36981 ft 460 kts
2026-04-25 12:14 31.53898 -81.95982 36981 ft 460 kts
2026-04-25 12:14 31.60283 -81.95501 36982 ft 460 kts
2026-04-25 12:15 31.66668 -81.95022 36973 ft 460 kts
2026-04-25 12:15 31.73049 -81.94542 36971 ft 459 kts
2026-04-25 12:16 31.79427 -81.94060 36962 ft 459 kts
2026-04-25 12:16 31.85802 -81.93579 36956 ft 459 kts
2026-04-25 12:17 31.92189 -81.93095 36956 ft 459 kts
2026-04-25 12:17 31.98566 -81.92613 36943 ft 459 kts
2026-04-25 12:18 32.04945 -81.92129 36944 ft 460 kts
2026-04-25 12:18 32.11327 -81.91564 36943 ft 460 kts
2026-04-25 12:19 32.16493 -81.90024 36943 ft 464 kts 19°
2026-04-25 12:19 32.20456 -81.87960 36943 ft 466 kts 22°
2026-04-25 12:20 32.26290 -81.84578 36943 ft 467 kts 24°
2026-04-25 12:20 32.32099 -81.81112 36943 ft 467 kts 24°
2026-04-25 12:21 32.37904 -81.77664 36935 ft 467 kts 24°
2026-04-25 12:21 32.43730 -81.74223 36916 ft 467 kts 24°
2026-04-25 12:22 32.49510 -81.70814 36929 ft 467 kts 24°
2026-04-25 12:22 32.55336 -81.67374 36914 ft 468 kts 24°
2026-04-25 12:23 32.61171 -81.63921 36935 ft 468 kts 24°
2026-04-25 12:23 32.66998 -81.60464 36944 ft 468 kts 24°
2026-04-25 12:24 32.71842 -81.57592 36944 ft 468 kts 24°
2026-04-25 12:24 32.77673 -81.54129 36943 ft 469 kts 24°
2026-04-25 12:25 32.83506 -81.50657 36936 ft 469 kts 24°
2026-04-25 12:25 32.89342 -81.47180 36933 ft 469 kts 24°
2026-04-25 12:26 32.95181 -81.43694 36928 ft 469 kts 24°
2026-04-25 12:26 33.01020 -81.40203 36922 ft 470 kts 24°
2026-04-25 12:27 33.06866 -81.36702 36933 ft 470 kts 24°
2026-04-25 12:27 33.12715 -81.33195 36933 ft 471 kts 24°
2026-04-25 12:28 33.18571 -81.29680 36942 ft 471 kts 24°
2026-04-25 12:28 33.24425 -81.26158 36943 ft 471 kts 24°
2026-04-25 12:29 33.30284 -81.22631 36943 ft 471 kts 24°
2026-04-25 12:29 33.36107 -81.19119 36935 ft 472 kts 25°
2026-04-25 12:30 33.41970 -81.15576 36932 ft 472 kts 25°
2026-04-25 12:30 33.47828 -81.12029 36917 ft 471 kts 25°
2026-04-25 12:31 33.53682 -81.08480 36908 ft 472 kts 25°
2026-04-25 12:31 33.59539 -81.04926 36899 ft 472 kts 25°
2026-04-25 12:32 33.65392 -81.01369 36906 ft 472 kts 25°
2026-04-25 12:32 33.71255 -80.97801 36915 ft 472 kts 25°
2026-04-25 12:33 33.77117 -80.94230 36910 ft 472 kts 25°
2026-04-25 12:33 33.82621 -80.90869 36909 ft 472 kts 25°
2026-04-25 12:34 33.88137 -80.86542 36901 ft 474 kts 34°
2026-04-25 12:34 33.93388 -80.81716 36902 ft 475 kts 36°
2026-04-25 12:35 33.98558 -80.76840 36897 ft 475 kts 36°
2026-04-25 12:35 34.03763 -80.71932 36912 ft 476 kts 36°
2026-04-25 12:36 34.08988 -80.67003 36921 ft 478 kts 36°
2026-04-25 12:36 34.14229 -80.62056 36928 ft 478 kts 36°
2026-04-25 12:37 34.19464 -80.57114 36909 ft 478 kts 36°
2026-04-25 12:37 34.24701 -80.52158 36934 ft 477 kts 36°
2026-04-25 12:38 34.29943 -80.47245 36934 ft 477 kts 36°
2026-04-25 12:38 34.35235 -80.42389 36934 ft 477 kts 35°
2026-04-25 12:39 34.40520 -80.37532 36933 ft 477 kts 35°
2026-04-25 12:39 34.45798 -80.32662 36934 ft 477 kts 36°
2026-04-25 12:40 34.51075 -80.27775 36929 ft 477 kts 36°
2026-04-25 12:40 34.56355 -80.22876 36913 ft 478 kts 36°
2026-04-25 12:41 34.61627 -80.17973 36928 ft 478 kts 36°
2026-04-25 12:41 34.66908 -80.13058 36928 ft 478 kts 36°
2026-04-25 12:42 34.72198 -80.08137 36915 ft 479 kts 35°
2026-04-25 12:42 34.77466 -80.03235 36928 ft 480 kts 35°
2026-04-25 12:43 34.82766 -79.98307 36928 ft 480 kts 34°
2026-04-25 12:43 34.90868 -79.91165 36928 ft 479 kts 33°
2026-04-25 12:44 34.96278 -79.86433 36928 ft 479 kts 33°
2026-04-25 12:45 35.04386 -79.79268 36933 ft 480 kts 33°
2026-04-25 12:45 35.12582 -79.72213 36929 ft 479 kts 27°
2026-04-25 12:46 35.18709 -79.69247 36929 ft 472 kts
2026-04-25 12:46 35.25194 -79.68171 36910 ft 470 kts
2026-04-25 12:47 35.31720 -79.67492 36934 ft 471 kts
2026-04-25 12:47 35.38201 -79.66862 36933 ft 471 kts
2026-04-25 12:48 35.44748 -79.66195 36934 ft 472 kts
2026-04-25 12:48 35.51285 -79.65505 36934 ft 472 kts
2026-04-25 12:49 35.57835 -79.64803 36933 ft 472 kts
2026-04-25 12:49 35.64375 -79.64104 36934 ft 472 kts
2026-04-25 12:50 35.70918 -79.63405 36928 ft 472 kts
2026-04-25 12:50 35.77474 -79.62703 36930 ft 472 kts
2026-04-25 12:51 35.84029 -79.62000 36929 ft 473 kts
2026-04-25 12:51 35.90576 -79.61294 36916 ft 473 kts
2026-04-25 12:52 35.97132 -79.60592 36914 ft 472 kts
2026-04-25 12:52 36.03688 -79.60095 36907 ft 471 kts 358°
2026-04-25 12:53 36.10244 -79.59857 36906 ft 471 kts 358°
2026-04-25 12:53 36.16798 -79.59610 36907 ft 471 kts 358°
2026-04-25 12:54 36.23356 -79.59317 36907 ft 471 kts 358°
2026-04-25 12:54 36.29909 -79.59000 36906 ft 471 kts 359°
2026-04-25 12:55 36.35357 -79.58734 36901 ft 471 kts 359°
2026-04-25 12:55 36.43018 -79.58362 36903 ft 471 kts 358°
2026-04-25 12:56 36.49569 -79.58046 36913 ft 471 kts 358°
2026-04-25 12:56 36.56113 -79.57730 36917 ft 471 kts 358°
2026-04-25 12:57 36.62655 -79.57410 36925 ft 470 kts 358°
2026-04-25 12:57 36.69189 -79.57090 36915 ft 470 kts 358°
2026-04-25 12:58 36.75724 -79.56773 36909 ft 470 kts 358°
2026-04-25 12:58 36.82256 -79.56429 36909 ft 470 kts 358°
2026-04-25 12:59 36.88748 -79.56124 36912 ft 470 kts 358°
2026-04-25 12:59 36.95278 -79.55819 36923 ft 469 kts 358°
2026-04-25 13:00 36.99648 -79.55493 36918 ft 473 kts
2026-04-25 13:00 37.08306 -79.53541 36917 ft 476 kts
2026-04-25 13:01 37.14795 -79.51882 36914 ft 476 kts
2026-04-25 13:01 37.21287 -79.50207 36910 ft 476 kts
2026-04-25 13:02 37.27796 -79.48541 36915 ft 477 kts
2026-04-25 13:02 37.34302 -79.46878 36909 ft 477 kts
2026-04-25 13:03 37.40772 -79.45225 36915 ft 477 kts
2026-04-25 13:03 37.47279 -79.43556 36929 ft 478 kts
2026-04-25 13:04 37.53796 -79.41881 36912 ft 478 kts
2026-04-25 13:04 37.60310 -79.40205 36919 ft 478 kts
2026-04-25 13:05 37.66823 -79.38523 36933 ft 477 kts
2026-04-25 13:05 37.73337 -79.36842 36934 ft 477 kts
2026-04-25 13:06 37.79849 -79.35159 36943 ft 478 kts
2026-04-25 13:06 37.86351 -79.33306 36944 ft 483 kts 12°
2026-04-25 13:07 37.92486 -79.29781 36944 ft 492 kts 23°
2026-04-25 13:07 37.98438 -79.25486 36934 ft 493 kts 25°
2026-04-25 13:08 38.04347 -79.21068 36928 ft 493 kts 25°
2026-04-25 13:08 38.10264 -79.16650 36929 ft 494 kts 25°
2026-04-25 13:09 38.16192 -79.12245 36909 ft 493 kts 24°
2026-04-25 13:09 38.22113 -79.07848 36909 ft 493 kts 24°
2026-04-25 13:10 38.27031 -79.04186 36921 ft 492 kts 24°
2026-04-25 13:10 38.32938 -78.99788 36928 ft 492 kts 24°
2026-04-25 13:11 38.38847 -78.95378 36918 ft 492 kts 24°
2026-04-25 13:11 38.44749 -78.90962 36914 ft 492 kts 24°
2026-04-25 13:12 38.50648 -78.86539 36902 ft 491 kts 24°
2026-04-25 13:12 38.55549 -78.82855 36915 ft 492 kts 24°
2026-04-25 13:13 38.62434 -78.77676 36908 ft 491 kts 24°
2026-04-25 13:13 38.68319 -78.73240 36917 ft 490 kts 24°
2026-04-25 13:14 38.74157 -78.68830 36925 ft 491 kts 24°
2026-04-25 13:14 38.80036 -78.64379 36909 ft 491 kts 24°
2026-04-25 13:15 38.85909 -78.59926 36916 ft 490 kts 24°
2026-04-25 13:15 38.91776 -78.55468 36920 ft 490 kts 24°
2026-04-25 13:16 38.97636 -78.51011 36918 ft 490 kts 24°
2026-04-25 13:16 39.03498 -78.46538 36912 ft 490 kts 25°
2026-04-25 13:17 39.09358 -78.42057 36929 ft 490 kts 24°
2026-04-25 13:17 39.15218 -78.37569 36912 ft 489 kts 24°
2026-04-25 13:18 39.20985 -78.32837 36928 ft 493 kts 29°
2026-04-25 13:18 39.26547 -78.27573 36934 ft 495 kts 31°
2026-04-25 13:19 39.32052 -78.22325 36933 ft 494 kts 30°
2026-04-25 13:19 39.36684 -78.17991 36934 ft 494 kts 30°
2026-04-25 13:20 39.43212 -78.11945 36942 ft 493 kts 29°
2026-04-25 13:20 39.48792 -78.06778 36943 ft 493 kts 29°
2026-04-25 13:21 39.54370 -78.01600 36943 ft 493 kts 29°
2026-04-25 13:21 39.59935 -77.96424 36942 ft 492 kts 29°
2026-04-25 13:22 39.65489 -77.91245 36954 ft 491 kts 29°
2026-04-25 13:23 39.73772 -77.83502 36953 ft 492 kts 29°
2026-04-25 13:23 39.79547 -77.78896 36953 ft 480 kts 17°
2026-04-25 13:24 39.85795 -77.76121 36952 ft 473 kts 10°
2026-04-25 13:24 39.92119 -77.73786 36953 ft 472 kts
2026-04-25 13:25 39.98458 -77.71513 36951 ft 472 kts
2026-04-25 13:25 40.04794 -77.69216 36943 ft 472 kts
2026-04-25 13:26 40.11121 -77.66898 36943 ft 472 kts
2026-04-25 13:26 40.17451 -77.64567 36944 ft 472 kts
2026-04-25 13:27 40.23775 -77.62234 36949 ft 472 kts
2026-04-25 13:27 40.30097 -77.59901 36963 ft 471 kts
2026-04-25 13:28 40.36415 -77.57562 36960 ft 471 kts
2026-04-25 13:28 40.42684 -77.55234 36962 ft 471 kts
2026-04-25 13:29 40.48982 -77.52894 36961 ft 470 kts
2026-04-25 13:29 40.55278 -77.50551 36957 ft 470 kts
2026-04-25 13:30 40.64705 -77.47033 36953 ft 469 kts
2026-04-25 13:31 40.74121 -77.43511 36954 ft 469 kts
2026-04-25 13:31 40.80433 -77.41467 36952 ft 465 kts
2026-04-25 13:32 40.86760 -77.39691 36952 ft 464 kts
2026-04-25 13:32 40.93039 -77.37897 36968 ft 464 kts
2026-04-25 13:33 40.99345 -77.36034 36971 ft 465 kts
2026-04-25 13:33 41.05660 -77.34137 36971 ft 464 kts
2026-04-25 13:34 41.11965 -77.32242 36972 ft 464 kts
2026-04-25 13:34 41.18265 -77.30345 36970 ft 464 kts
2026-04-25 13:35 41.24570 -77.28442 36970 ft 464 kts
2026-04-25 13:35 41.30861 -77.26542 36962 ft 464 kts
2026-04-25 13:36 41.37156 -77.24639 36958 ft 464 kts
2026-04-25 13:36 41.43446 -77.22731 36951 ft 464 kts
2026-04-25 13:37 41.49742 -77.20821 36950 ft 464 kts
2026-04-25 13:37 41.56042 -77.18904 36946 ft 464 kts
2026-04-25 13:38 41.62288 -77.16996 36944 ft 464 kts
2026-04-25 13:38 41.68585 -77.15073 36943 ft 464 kts
2026-04-25 13:39 41.74878 -77.13154 36943 ft 464 kts
2026-04-25 13:39 41.81180 -77.11211 36943 ft 464 kts
2026-04-25 13:40 41.87466 -77.09267 36944 ft 463 kts
2026-04-25 13:40 41.93754 -77.07323 36950 ft 463 kts
2026-04-25 13:41 42.00038 -77.05378 36953 ft 463 kts
2026-04-25 13:41 42.06310 -77.03427 36960 ft 463 kts
2026-04-25 13:42 42.12385 -77.00432 36962 ft 473 kts 18°
2026-04-25 13:42 42.18321 -76.96572 36973 ft 474 kts 19°
2026-04-25 13:43 42.24214 -76.92573 36971 ft 474 kts 20°
2026-04-25 13:43 42.30098 -76.88570 36971 ft 473 kts 19°
2026-04-25 13:44 42.35980 -76.84587 36970 ft 472 kts 19°
2026-04-25 13:44 42.41854 -76.80611 36971 ft 472 kts 19°
2026-04-25 13:45 42.47724 -76.76624 36969 ft 472 kts 20°
2026-04-25 13:45 42.53444 -76.72167 36971 ft 476 kts 24°
2026-04-25 13:46 42.59073 -76.67419 36971 ft 476 kts 25°
2026-04-25 13:46 42.59728 -76.66868 36971 ft 0 kts 25°